{"data":{"norad_id":58511,"intl_designator":"2023-191D","name":"STARLINK-30968","alt_names":[],"object_type":"PAYLOAD","status":"ACTIVE","operator":null,"country":"US","launch_date":"2023-12-07","launch_site_code":"AFETR","launch_vehicle":null,"mission":null,"orbit_class":"UNKNOWN","rcs_meters":null,"size_class":null,"mass_kg":null,"dimensions":null,"purposes":["comms"],"wikipedia_slug":null,"has_3d_model":false,"image_url":null,"decayed_at":null,"tle_current":{"epoch":"2026-05-24T23:15:54.550368Z","epoch_age_seconds":67973,"freshness":"FRESH","line1":"1 58511U 23191D   26144.96938137  .00003030  00000+0  11953-3 0  9996","line2":"2 58511  43.0018  32.9633 0001211 274.9456  85.1257 15.27598751137139","mean_motion":15.27598751,"eccentricity":0.0001211,"inclination_deg":43.0018,"raan_deg":32.9633,"arg_perigee_deg":274.9456,"mean_anomaly_deg":85.1257,"bstar":0.00011953,"rev_number":13713,"period_min":94.265591606261,"perigee_km":482.16206653748,"apogee_km":483.82383221122,"semimajor_km":6861.1299493743,"source":"CELESTRAK","updated_at":"2026-05-25T13:38:18.655797Z"}}}